Wind_Speed
15 16 20 22 24 26 30 34 39 44 50 54 58 64 68 71 69 66 64 63 62 64 68 71 68 61 61 61 65 66 62 58 56 53 51 48 44 44 41 38 39 37 37 34
16 18 20 23 25 26 31 35 40 44 48 52 56 61 68 78 77 72 70 67 67 69 72 72 72 70 61 63 65 68 66 63 60 56 54 53 49 48 45 45 44 41 40 38
18 20 20 22 24 28 33 38 42 45 46 42 43 48 48 67 78 82 78 77 78 76 72 71 74 75 72 64 71 70 70 69 63 62 59 58 56 53 52 50 45 43 43 42
18 19 20 22 25 30 36 39 38 38 40 34 28 25 37 42 44 58 78 82 85 77 75 74 77 78 77 73 68 72 74 75 69 69 65 64 60 56 53 51 50 50 49 47
16 18 19 22 27 31 35 36 27 26 28 18 14 4 10 13 27 32 41 50 74 81 81 81 81 81 83 80 74 69 70 75 74 72 72 68 64 61 57 59 55 52 53 53
14 17 18 22 27 32 35 27 22 20 16 19 19 5 19 20 14 30 28 25 39 69 83 84 81 79 81 81 78 74 73 72 79 76 75 73 68 68 65 65 63 60 61 62
12 15 18 22 26 31 32 22 17 12 15 11 9 9 14 16 12 15 19 14 18 34 70 80 83 82 79 81 82 78 75 75 77 79 78 77 73 72 70 71 72 67 63 63
12 13 16 20 24 27 28 20 16 13 8 6 12 13 15 18 18 15 10 18 10 10 30 61 80 83 82 80 82 77 78 76 74 73 74 75 76 74 73 73 66 63 62 63
10 11 14 17 21 26 27 21 13 13 9 11 14 14 14 17 14 13 11 14 6 10 12 30 61 79 83 80 80 78 78 78 77 76 78 77 76 75 74 73 68 67 64 65
10 11 13 15 17 21 25 25 14 13 10 9 13 14 10 14 15 12 12 8 4 14 13 20 35 55 78 82 79 80 74 79 79 80 80 80 81 79 77 75 71 68 64 62
10 10 11 14 16 19 22 24 19 11 11 9 5 15 12 14 16 16 14 8 8 8 8 13 14 34 54 73 79 80 77 74 79 80 82 85 84 83 78 77 76 74 71 68
10 10 10 10 11 13 15 17 19 17 11 12 12 12 12 12 13 16 19 22 22 24 13 16 16 18 24 50 64 74 78 75 74 80 82 83 86 79 75 78 79 78 77 74
10 10 10 10 9 10 11 13 16 18 17 12 10 14 16 17 17 15 18 20 21 22 18 25 20 21 26 27 42 46 66 73 74 73 77 84 87 85 86 84 78 83 82 81
10 11 12 12 11 11 11 12 12 13 14 15 16 15 14 16 18 20 21 21 22 21 21 24 29 28 28 32 35 40 46 56 68 67 69 71 74 81 84 85 89 86 83 84
10 11 12 13 12 11 11 11 10 9 10 11 12 14 17 17 16 13 15 19 23 25 26 26 28 29 30 28 34 39 43 47 54 59 62 65 63 66 68 66 82 88 88 87
11 12 13 13 13 12 11 11 10 8 8 9 11 12 13 15 16 18 18 18 18 19 21 28 34 37 34 31 39 37 35 47 50 49 58 61 65 65 69 69 68 71 85 87
14 13 13 13 13 14 13 12 11 10 9 10 11 13 14 14 13 15 17 20 22 25 26 24 26 32 37 41 40 45 48 46 43 52 51 62 63 64 66 70 69 69 71 75
18 15 14 14 14 13 14 14 12 12 11 11 12 13 14 16 16 14 16 17 19 23 25 27 29 31 34 37 42 48 54 56 54 55 58 59 57 67 71 74 72 73 73 79
21 18 17 16 14 15 14 15 15 14 14 14 15 15 16 17 20 16 17 20 21 25 28 31 32 32 33 37 42 44 50 57 62 65 64 64 65 64 60 61 72 82 79 75
22 21 18 18 16 15 15 16 16 16 15 16 17 18 18 18 19 22 21 21 25 26 27 30 34 38 38 35 38 43 44 42 51 61 63 65 61 63 67 65 66 66 61 66
25 22 20 20 19 15 17 16 18 18 18 18 19 20 20 21 21 22 22 23 24 26 28 33 36 39 41 41 37 36 37 36 37 41 47 48 48 56 60 63 66 68 71 74
26 25 21 22 22 17 18 18 20 19 19 20 21 22 22 23 24 24 24 26 27 28 30 33 37 41 42 40 34 34 35 35 35 36 39 43 44 45 46 52 58 62 60 62
28 24 24 24 24 20 19 19 20 20 20 21 23 23 24 25 26 27 27 28 30 30 32 33 37 41 44 43 34 31 32 33 35 34 35 35 37 38 39 41 43 46 52 56
29 25 24 25 25 21 21 19 20 21 22 22 24 25 26 27 28 29 29 29 31 33 34 36 38 41 45 46 39 32 31 31 31 31 32 33 32 33 33 35 38 39 41 44
28 25 25 26 26 23 21 22 21 21 24 24 26 27 27 28 29 30 30 30 31 34 36 39 40 42 44 47 46 37 32 30 28 26 27 28 29 32 35 38 40 41 44 45
27 27 27 25 26 23 23 22 23 23 24 25 27 28 29 30 31 31 31 32 32 34 36 39 41 43 45 47 48 39 34 30 28 28 28 29 30 31 34 36 38 42 45 47
Wind_Direction
286 293 292 290 287 285 287 290 287 279 272 265 260 259 258 257 253 247 241 234 234 233 235 233 231 228 229 225 223 225 227 227 229 231 236 239 242 240 240 245 248 249 252 253
289 295 302 301 301 300 303 303 298 292 282 273 264 256 254 250 251 246 242 238 232 233 230 232 233 230 228 226 226 225 229 229 230 228 233 237 236 240 243 246 246 248 249 249
310 309 308 311 312 314 318 316 311 303 295 290 280 265 257 249 247 246 239 236 231 229 231 229 228 232 229 223 225 225 228 230 229 228 231 234 238 240 244 249 251 252 253 252
309 310 317 322 323 331 333 332 324 315 317 318 299 275 261 257 255 253 246 236 233 228 228 229 227 228 232 232 226 224 224 229 229 227 228 232 235 241 247 247 249 250 249 246
310 316 328 331 337 342 346 341 331 321 332 356 352 358 269 293 224 240 247 245 234 233 226 225 225 223 229 232 231 231 229 228 230 229 228 231 235 235 241 243 245 247 246 244
314 321 332 340 347 352 358 355 342 355 355 7 326 274 279 291 265 245 264 261 252 234 228 226 226 226 226 232 233 232 231 230 230 230 230 232 235 234 238 239 239 240 240 243
317 327 337 346 353 2 7 3 4 351 353 346 309 327 271 295 273 299 262 236 249 241 232 228 227 227 225 227 231 230 230 230 231 228 231 233 235 235 238 241 238 233 240 241
321 328 344 352 3 12 15 7 1 3 344 291 282 328 318 309 302 331 249 262 258 252 232 235 229 229 228 226 230 231 230 229 231 235 236 234 233 233 236 244 241 245 244 240
316 331 344 354 8 18 20 15 5 0 346 322 334 334 318 331 301 322 316 224 257 277 251 232 232 230 230 229 229 231 230 231 231 230 231 232 234 238 241 243 246 244 242 250
313 326 342 351 5 22 29 22 5 344 343 344 329 339 320 333 359 328 327 247 222 246 254 237 227 226 230 232 229 231 232 231 230 231 232 233 236 236 236 237 240 242 243 244
308 319 338 348 360 15 24 29 20 342 327 344 346 305 343 341 321 341 330 341 322 272 241 277 258 240 224 231 232 231 232 231 232 232 235 237 229 228 236 237 239 242 246 248
310 314 326 345 356 9 19 28 31 23 346 313 321 316 335 342 336 335 335 324 321 329 256 232 225 262 252 231 234 235 235 235 234 235 235 238 244 250 244 233 238 241 243 246
311 311 313 323 338 355 7 23 34 35 31 9 337 313 322 326 325 327 319 319 318 319 310 248 252 229 232 246 235 239 236 238 240 238 241 240 238 240 238 243 243 242 242 243
302 306 306 309 322 340 350 3 22 32 34 32 32 20 352 328 314 310 309 307 307 307 300 297 283 295 225 221 228 240 233 236 238 243 244 245 249 243 236 241 241 241 243 246
295 300 302 300 305 318 332 341 356 359 19 25 24 24 25 28 19 352 319 302 296 291 292 287 283 288 286 263 233 220 228 240 236 238 241 243 243 246 249 249 244 240 242 245
283 290 295 295 297 300 309 320 330 334 341 353 359 11 13 15 16 21 22 13 352 324 299 295 291 290 289 280 277 251 235 228 229 239 239 239 240 241 243 247 248 250 245 242
270 280 289 293 296 291 294 298 311 313 323 325 337 348 353 358 6 4 8 10 5 0 354 331 305 294 290 283 275 270 268 268 253 239 229 231 237 244 246 244 247 248 249 251
263 271 283 291 295 295 292 290 296 304 311 314 320 329 333 341 350 350 354 355 356 356 350 341 334 322 301 287 278 270 269 267 266 257 249 243 235 231 237 242 245 249 251 251
260 265 275 286 293 303 295 294 295 298 302 307 311 318 325 329 329 342 339 346 352 353 351 346 342 333 318 302 288 274 264 262 262 262 262 263 261 255 244 239 238 239 243 247
258 260 267 278 288 299 300 296 293 294 296 303 306 312 315 319 322 326 334 338 340 341 343 342 342 339 332 317 299 285 277 269 262 258 261 261 260 263 264 269 264 246 238 243
255 258 261 271 280 291 301 301 297 293 298 297 300 305 310 313 317 323 324 329 328 330 336 339 341 340 336 324 309 295 290 285 278 273 269 268 266 262 261 262 264 267 268 268
252 256 260 265 277 286 297 303 300 297 293 294 298 303 309 310 316 321 321 322 324 328 330 334 337 338 337 330 309 296 294 290 282 277 275 270 267 265 262 260 261 264 266 266
252 256 255 264 272 283 293 301 298 299 295 294 296 301 307 311 316 318 320 320 318 322 325 330 333 337 337 335 319 304 300 292 287 282 279 276 276 274 269 268 269 268 266 267
253 253 255 260 270 278 290 296 297 297 296 297 299 303 307 311 314 315 318 318 317 318 322 325 327 332 336 337 328 312 308 299 290 286 284 281 277 273 276 279 279 277 275 273
249 255 255 262 269 272 285 293 294 296 297 299 301 303 308 309 311 312 314 317 316 316 319 323 324 327 332 335 333 315 307 305 296 291 288 287 287 289 291 291 290 289 288 283
249 248 256 260 264 270 281 289 295 296 298 301 302 304 306 307 309 310 312 316 315 316 319 320 322 324 328 332 335 319 305 296 291 287 286 288 290 289 291 291 290 291 291 290
Height
5745 5745 5744 5743 5743 5741 5738 5735 5731 5727 5723 5721 5720 5718 5719 5718 5724 5732 5741 5749 5753 5759 5763 5768 5775 5784 5790 5795 5800 5806 5812 5818 5821 5827 5832 5835 5840 5842 5844 5846 5848 5851 5852 5854
5742 5740 5738 5736 5734 5732 5729 5724 5718 5712 5706 5702 5699 5700 5696 5691 5702 5716 5724 5731 5738 5741 5741 5754 5762 5769 5776 5785 5790 5796 5802 5808 5812 5818 5823 5827 5830 5834 5837 5837 5839 5843 5845 5848
5735 5734 5733 5730 5727 5723 5718 5712 5703 5695 5686 5683 5679 5679 5670 5675 5679 5684 5698 5708 5708 5717 5730 5740 5749 5753 5760 5768 5775 5783 5791 5796 5802 5808 5812 5817 5821 5824 5826 5829 5834 5837 5839 5841
5731 5729 5727 5724 5720 5714 5707 5699 5690 5681 5673 5669 5665 5663 5657 5661 5665 5665 5670 5680 5688 5703 5715 5723 5729 5739 5745 5754 5760 5767 5775 5782 5789 5795 5800 5805 5810 5816 5819 5822 5823 5826 5829 5831
5727 5724 5722 5718 5713 5707 5701 5690 5683 5678 5670 5665 5662 5659 5656 5655 5656 5656 5658 5658 5671 5684 5693 5700 5705 5717 5725 5733 5747 5759 5765 5770 5777 5783 5789 5794 5798 5804 5806 5809 5813 5817 5819 5822
5722 5719 5717 5713 5707 5701 5693 5685 5679 5675 5671 5667 5662 5660 5654 5653 5652 5652 5651 5652 5655 5665 5676 5685 5698 5707 5717 5726 5737 5745 5749 5756 5763 5770 5776 5782 5787 5791 5794 5798 5801 5803 5806 5807
5719 5716 5713 5708 5704 5697 5689 5683 5680 5677 5672 5671 5663 5659 5655 5652 5650 5649 5644 5647 5648 5651 5663 5673 5685 5692 5704 5711 5718 5727 5733 5737 5742 5747 5761 5768 5774 5779 5783 5785 5788 5789 5794 5798
5715 5714 5710 5706 5700 5694 5687 5682 5678 5675 5673 5670 5664 5660 5654 5650 5648 5646 5645 5645 5646 5647 5652 5661 5672 5680 5689 5698 5704 5712 5719 5725 5732 5742 5751 5756 5758 5763 5768 5771 5775 5780 5783 5786
5712 5710 5706 5703 5697 5692 5685 5681 5677 5674 5672 5667 5664 5660 5657 5652 5649 5647 5646 5644 5645 5645 5647 5650 5658 5666 5674 5685 5693 5698 5705 5714 5720 5726 5733 5740 5746 5751 5757 5762 5765 5769 5774 5776
5709 5707 5703 5700 5696 5690 5685 5680 5676 5673 5671 5667 5663 5660 5657 5655 5650 5648 5647 5646 5647 5644 5642 5645 5647 5652 5662 5670 5680 5686 5693 5700 5706 5712 5717 5724 5730 5735 5740 5746 5750 5755 5759 5763
5705 5704 5702 5697 5693 5688 5684 5679 5674 5671 5669 5666 5664 5660 5656 5653 5651 5649 5646 5644 5643 5643 5639 5644 5645 5647 5649 5657 5664 5674 5681 5686 5693 5699 5702 5704 5708 5714 5724 5731 5736 5741 5745 5750
5701 5700 5698 5696 5692 5688 5684 5679 5675 5670 5668 5664 5661 5658 5653 5652 5651 5649 5647 5644 5643 5641 5640 5640 5640 5645 5646 5648 5654 5662 5669 5674 5679 5684 5690 5694 5696 5697 5703 5713 5720 5726 5730 5735
5698 5696 5695 5693 5692 5687 5684 5680 5674 5670 5667 5663 5660 5657 5652 5649 5647 5646 5645 5644 5642 5640 5640 5640 5638 5639 5641 5644 5645 5649 5655 5660 5665 5671 5675 5678 5683 5688 5693 5697 5701 5709 5713 5718
5694 5692 5691 5690 5687 5685 5681 5678 5674 5671 5668 5664 5660 5656 5652 5649 5647 5644 5642 5641 5640 5639 5639 5638 5636 5635 5635 5636 5638 5639 5642 5645 5649 5654 5659 5663 5667 5670 5674 5679 5684 5689 5694 5698
5690 5689 5687 5685 5683 5681 5679 5676 5673 5671 5668 5665 5662 5657 5653 5650 5646 5643 5641 5638 5636 5635 5633 5633 5632 5630 5631 5630 5629 5628 5632 5634 5637 5639 5643 5647 5650 5653 5656 5661 5665 5669 5674 5680
5687 5685 5684 5682 5680 5678 5676 5674 5672 5669 5667 5664 5661 5657 5654 5650 5645 5642 5638 5634 5631 5628 5627 5624 5622 5619 5619 5620 5620 5620 5619 5622 5624 5626 5630 5633 5635 5637 5641 5644 5648 5651 5655 5660
5682 5681 5680 5678 5676 5674 5674 5672 5669 5667 5665 5662 5659 5655 5652 5649 5646 5642 5637 5633 5629 5624 5621 5619 5617 5613 5609 5608 5609 5609 5609 5608 5609 5611 5611 5614 5619 5623 5625 5627 5631 5634 5637 5640
5676 5676 5675 5674 5672 5671 5669 5667 5666 5664 5661 5659 5656 5653 5650 5646 5643 5640 5636 5632 5628 5624 5620 5615 5610 5605 5602 5600 5600 5597 5593 5594 5596 5597 5598 5596 5598 5600 5604 5609 5612 5614 5617 5620
5670 5670 5670 5668 5667 5667 5664 5663 5661 5659 5658 5655 5652 5650 5647 5643 5639 5638 5633 5628 5624 5620 5615 5611 5606 5600 5594 5588 5585 5584 5582 5581 5580 5582 5583 5584 5584 5583 5584 5586 5588 5592 5597 5600
5664 5663 5664 5663 5662 5661 5660 5658 5655 5655 5653 5650 5648 5645 5643 5641 5638 5632 5627 5623 5619 5615 5612 5607 5601 5594 5588 5582 5575 5567 5565 5566 5563 5563 5564 5565 5568 5569 5568 5568 5569 5571 5574 5578
5657 5657 5657 5656 5656 5657 5655 5653 5651 5650 5650 5645 5643 5641 5638 5635 5633 5628 5624 5619 5615 5611 5606 5600 5593 5587 5580 5571 5564 5559 5554 5552 5550 5548 5547 5547 5547 5550 5552 5554 5555 5556 5557 5557
5651 5651 5651 5650 5650 5651 5649 5647 5646 5644 5642 5640 5638 5635 5633 5629 5626 5622 5618 5613 5609 5604 5599 5593 5586 5579 5571 5563 5556 5550 5545 5543 5541 5539 5536 5535 5534 5533 5533 5536 5538 5539 5539 5540
5643 5646 5645 5645 5644 5644 5643 5642 5639 5637 5636 5634 5632 5629 5626 5623 5619 5615 5611 5607 5603 5598 5593 5586 5579 5572 5564 5556 5549 5544 5538 5533 5530 5528 5527 5525 5523 5521 5520 5521 5520 5521 5521 5521
5635 5638 5638 5638 5638 5638 5637 5636 5634 5631 5629 5627 5625 5622 5619 5616 5612 5608 5605 5601 5596 5591 5585 5579 5572 5565 5557 5549 5541 5536 5531 5526 5522 5519 5516 5514 5514 5513 5512 5510 5510 5509 5507 5506
5628 5630 5631 5631 5630 5631 5631 5629 5628 5626 5623 5620 5618 5615 5612 5609 5606 5602 5599 5594 5590 5584 5578 5572 5566 5559 5551 5542 5534 5528 5524 5520 5515 5512 5509 5506 5504 5501 5499 5497 5495 5494 5491 5490
5621 5622 5623 5624 5623 5623 5624 5622 5620 5619 5616 5614 5611 5609 5606 5603 5599 5595 5591 5587 5583 5578 5572 5565 5559 5552 5544 5537 5529 5520 5516 5512 5509 5506 5502 5500 5497 5495 5492 5490 5487 5482 5478 5474